"Pseudo-MPEC" for P11DwJ1

Created 2023 Mar 19 13:22:15 UT using Find_Orb

Click here for an explanation of pseudo-MPECs

 
 Astrometry: 
     P11DwJ1* C2023 03 171%,BZ01v$;BP.UErHl!Hv)$2r%VApAFd[fOWDELfu4^PZWRL2;YhF51
     P11DwJ1  C2023 03 1738y..@/0^jPg!t3(;bpy9P0EWB38YV%KU4YOwChgsUBGB$+ux%w\F51
     P11DwJ1  C2023 03 17IwJa0f[5TndQ7Rrdbof^s(iHxAN%?d(p4C[ncp)eHIVTvukaUCDgF51
     P11DwJ1  C2023 03 17B@o!9Y)cnLxbioFa4n1DH-??RtJJ7F8,GQAstrometry@*o4VmPyF52
     P11DwJ1  C2023 03 17bvaPjru9Y:XeuR5yJ'E=3lHSP=A,1L+MHlXmS`QGrv$Ru(YtEF@nF52
     P11DwJ1 KC2023 03 18TpeOVv!b$J.\q'iWXjOOg-'5:7[:W)nNnD*EEF#I/9tj(QLZQmg2L01
     P11DwJ1 KC2023 03 180W!lA2u5`C3EBYEE\.^Wx@b!mCredacted;,:d?JAE%3f8bVR,iwL01
     P11DwJ1 KC2023 03 18NwN_+2p^SX9UE:@?;D)*\k:iQ*@Z,=.E#t;a'N')EBI;?\_H@vm[L01
     P11DwJ1 1C2023 03 19.11675 14 47 03.96 +02 34 51.7    ~3J97 21.1 VXNEOCP033
     P11DwJ1 1C2023 03 19.11860 14 47 04.64 +02 34 45.2    ~3J97 20.9 VXNEOCP033
     P11DwJ1 1C2023 03 19.12045 14 47 05.30 +02 34 38.8    ~3J97 21.1 VXNEOCP033
     P11DwJ1 |C2023 03 19ey?+3%#uKo@gQnAXxfT!^ot@/Ba+jBJCaUVf2Qk82%QZFd2g4Kh.807
     P11DwJ1 |C2023 03 19Fw+-\OO`rjo(0(Y@3he)5g!#mi19@pVE)qs2y):2_4F'4e*5H?VI807
     P11DwJ1 |C2023 03 19B#9click-3XpjWy`Orr(Vf;o!;w5Z[$(T[Qv^D]UX;KM%bw[^-GS807
     P11DwJ1 KC2023 03 19Wn.l(ipdCQsherej`0ErLJtSO]U'rmhsGEvoShRB8?jX84sIYEO]H36
     P11DwJ1 KC2023 03 19@(3W7nO^\H+\xU5@-2YIQI(D]UGpv-tX@QIh-%)9a'fornvHU.'$H36
     P11DwJ1 KC2023 03 19:*,^A;+7explanation[Dj9?BaIf+M3d$5?2pD*dAI2p*0`w)(9kH36
     P11DwJ1 KC2023 03 19+=WjY_#Dcl=Ob;VF@]FjItZVLc_e.D(f4%l:h^W=!ss=sn!s^$i2H21
     P11DwJ1 KC2023 03 19^E^^$0(`P=U/CGN;H!4fN(AG@Ej-^5k`NIJV0!Mf06]T^1I`2]`@H21
     P11DwJ1 KC2023 03 19!a`!Qm9@9Sn#%LXRmiiPw'aFAM)Hg##Nd$Y1=y$pHAtMG,%:uHjrH21

Station data:
(033) Karl Schwarzschild Observatory, Tautenburg  (N50.980137 E11.711240)
   Germany.  Observers S. Melnikov, C. Hoegner, B. Stecklum. Measurer B.
   Stecklum. 1.34-m f/3 Schmidt + CCD.
(807) Cerro Tololo Observatory, La Serena  (S30.169133 W70.805900)  Chile.
   Observer R. Holmes. 0.61-m f/6.5 astrograph + CCD.
(F51) Pan-STARRS 1, Haleakala  (N20.707234 W156.255910)  US/Hawaii.
   Observers J. Bulger, T. Lowe, A. Schultz, M. Willman. Measurers K.
   Chambers, S. Chastel, T. de Boer, L. Denneau, J. Fairlamb, H. Flewelling,
   M. Huber, C.-C. Lin, E. Magnier, Y. Ramanjooloo, R. Wainscoat, R. Weryk.
   1.8-m Ritchey-Chrétien + CCD.
(F52) Pan-STARRS 2, Haleakala  (N20.707382 W156.255910)  US/Hawaii.
   Observers J. Bulger, T. Dukes, T. Lowe, A. Schultz, M. Willman. Measurers
   K. Chambers, S. Chastel, T. de Boer, L. Denneau, J. Fairlamb, H.
   Flewelling, M. Huber, C.-C. Lin, E. Magnier, Y. Ramanjooloo, R. Wainscoat,
   R. Weryk. 1.8-m Ritchey-Chrétien + CCD.
(H21) Astronomical Research Observatory, Westfield  (N39.483054 W87.968270)
   US/Illinois.  Observer R. Holmes. Measurers S. Foglia, L. Buzzi, T.
   Linder, R. Holmes. 0.76-m f/3.0 astrograph + CCD0.81-m f/4.0 astrograph +
   CCD0.61-m f/4.5 astrograph + CCD0.40-m f/5.32 astrograph + CCD.
(H36) Sandlot Observatory, Scranton  (N38.797690 W95.706400)  US/Kansas.
   Observer G. Hug. 0.56-m reflector + CCD.
(L01) Višnjan Observatory, Tičan  (N45.290897 E13.749300)  Croatia.
   Observers K. Korlević, D. Pujagic, V. Dobos. Measurers D. Pujagic, K.
   Korlević. 1.0-m f/2.9 reflector + CCD.

Orbital elements:  P11DwJ1
   Perihelion 2023 May 16.48825 +/- 0.111 TT = 11:43:05 (JD 2460080.98825)
Epoch 2023 Mar 19.0 TT = JDT 2460022.5   Earth MOID: 0.0117   Ma: 0.0287
M 339.02233425 +/- 0.31             (J2000 ecliptic)             AutoNEOCP
n   0.35866460 +/- 0.00468          Peri.  249.36911 +/- 0.10
a   1.96190076 +/- 0.0171           Node    14.67913 +/- 0.025
e   0.6048241 +/- 0.00371           Incl.   14.41685 +/- 0.06
P   2.75                   H 23.29  G  0.15   U  9.1
q 0.77529587 +/- 0.000888    Q 3.14850566 +/- 0.0346
From 20 observations 2023 Mar. 17-19 (43.6 hr); mean residual 0".30
Residuals in arcseconds: 
230317 F51  .06-  .06+    230318 L01  .22-  .88-    230319 H36  .35+  .46+    
230317 F51  .14+  .04-    230319 033  .03+  .13+    230319 H36  .51+  .11-    
230317 F51  .14-  .14+    230319 033  .27+  .25+    230319 H36  .25-  .24-    
230317 F52  .05+  .19-    230319 033  .20+  .47+    230319 H21  .01-  .37-    
230317 F52  .02+  .10+    230319 807  .43-  .07+    230319 H21  .29+  .19-    
230318 L01  .05+  .24+    230319 807  .47-  .40+    230319 H21  .23+  .16-    
230318 L01  .15-  .13-    230319 807  .61-  .28-    

Ephemerides (geocentric):
Date (UTC) HH   RA             Dec           delta  r     elong  mag " sig PA
---- --------  ------------   ------------  ------ ------ -----  --- --------
2023 03 19 13  14 49 45.478   +02 09 30.61  .17779 1.1302 136.0 21.4 .141 138
2023 03 19 14  14 50 01.661   +02 06 53.71  .17736 1.1298 136.0 21.4 .151 136
2023 03 19 15  14 50 17.914   +02 04 16.03  .17693 1.1294 136.0 21.4 .161 134
2023 03 19 16  14 50 34.235   +02 01 37.58  .17650 1.1291 135.9 21.4 .171 132
2023 03 19 17  14 50 50.625   +01 58 58.35  .17607 1.1287 135.9 21.4 .182 131
2023 03 19 18  14 51 07.086   +01 56 18.32  .17564 1.1283 135.9 21.3 .194 129
2023 03 19 19  14 51 23.617   +01 53 37.51  .17522 1.1279 135.8 21.3 .206 128
2023 03 19 20  14 51 40.219   +01 50 55.89  .17479 1.1275 135.8 21.3 .218 127
2023 03 19 21  14 51 56.892   +01 48 13.48  .17436 1.1271 135.8 21.3 .231 126
2023 03 19 22  14 52 13.637   +01 45 30.26  .17394 1.1268 135.8 21.3 .244 125
2023 03 19 23  14 52 30.454   +01 42 46.22  .17351 1.1264 135.7 21.3 .258 124
2023 03 20 00  14 52 47.344   +01 40 01.37  .17309 1.1260 135.7 21.3 .272 123
2023 03 20 01  14 53 04.307   +01 37 15.69  .17266 1.1256 135.7 21.3 .287 123
2023 03 20 02  14 53 21.344   +01 34 29.19  .17224 1.1252 135.6 21.3 .302 122
2023 03 20 03  14 53 38.455   +01 31 41.85  .17181 1.1248 135.6 21.3 .318 121
2023 03 20 04  14 53 55.640   +01 28 53.68  .17139 1.1245 135.6 21.3 .334 121
2023 03 20 05  14 54 12.902   +01 26 04.67  .17097 1.1241 135.5 21.3 .350 120
2023 03 20 06  14 54 30.238   +01 23 14.80  .17054 1.1237 135.5 21.3 .368 119
2023 03 20 07  14 54 47.651   +01 20 24.09  .17012 1.1233 135.5 21.3 .385 119
2023 03 20 08  14 55 05.141   +01 17 32.52  .16970 1.1229 135.4 21.3 .403 119
2023 03 20 09  14 55 22.708   +01 14 40.08  .16928 1.1226 135.4 21.3 .421 118
2023 03 20 10  14 55 40.353   +01 11 46.77  .16886 1.1222 135.4 21.3 .440 118
2023 03 20 11  14 55 58.076   +01 08 52.59  .16844 1.1218 135.3 21.3 .460 117
2023 03 20 12  14 56 15.879   +01 05 57.53  .16802 1.1214 135.3 21.3 .479 117
2023 03 20 13  14 56 33.760   +01 03 01.59  .16760 1.1210 135.2 21.3 .500 117
2023 03 20 14  14 56 51.721   +01 00 04.76  .16718 1.1206 135.2 21.2 .520 116
2023 03 20 15  14 57 09.763   +00 57 07.03  .16676 1.1203 135.2 21.2 .542 116
2023 03 20 16  14 57 27.886   +00 54 08.40  .16634 1.1199 135.1 21.2 .563 116
2023 03 20 17  14 57 46.091   +00 51 08.86  .16592 1.1195 135.1 21.2 .586 116
2023 03 20 18  14 58 04.378   +00 48 08.42  .16551 1.1191 135.1 21.2 .608 115
2023 03 20 19  14 58 22.747   +00 45 07.05  .16509 1.1187 135.0 21.2 .632 115
2023 03 20 20  14 58 41.200   +00 42 04.76  .16467 1.1183 135.0 21.2 .655 115
2023 03 20 21  14 58 59.736   +00 39 01.55  .16426 1.1180 134.9 21.2 .680 115
2023 03 20 22  14 59 18.357   +00 35 57.40  .16384 1.1176 134.9 21.2 .704 115
2023 03 20 23  14 59 37.063   +00 32 52.31  .16343 1.1172 134.9 21.2 .730 115
2023 03 21 00  14 59 55.855   +00 29 46.27  .16301 1.1168 134.8 21.2 .755 114
2023 03 21 01  15 00 14.733   +00 26 39.28  .16260 1.1164 134.8 21.2 .782 114
2023 03 21 02  15 00 33.697   +00 23 31.34  .16218 1.1161 134.7 21.2 .808 114
2023 03 21 03  15 00 52.749   +00 20 22.43  .16177 1.1157 134.7 21.2 .836 114
2023 03 21 04  15 01 11.889   +00 17 12.55  .16136 1.1153 134.7 21.2 .864 114
2023 03 21 05  15 01 31.117   +00 14 01.70  .16095 1.1149 134.6 21.2 .892 114
2023 03 21 06  15 01 50.435   +00 10 49.87  .16054 1.1145 134.6 21.2 .921 114
2023 03 21 07  15 02 09.842   +00 07 37.05  .16013 1.1142 134.5 21.2 .951 114
2023 03 21 08  15 02 29.340   +00 04 23.24  .15972 1.1138 134.5 21.2 .981 113
2023 03 21 09  15 02 48.929   +00 01 08.43  .15931 1.1134 134.4 21.2 1.01 113
2023 03 21 10  15 03 08.609   -00 02 07.38  .15890 1.1130 134.4 21.2 1.04 113
2023 03 21 11  15 03 28.382   -00 05 24.21  .15849 1.1126 134.4 21.1 1.07 113
2023 03 21 12  15 03 48.248   -00 08 42.05  .15808 1.1122 134.3 21.1 1.11 113